Voltar ao catálogo

STARLINK-3774

AtivoComunicaçõesVLEO
NORAD 52680·PAYLOAD·🇺🇸 United States

Lançado May 18, 2022 de Cape Canaveral Space Force Station

Loading…

Próximas Passagens (próximas 24 horas)

TLE

AtualizadoSource: CelesTrak SupGP

Época: Sep 14, 2026, 21:43 UTC

1 52680C 22053AA  26257.90534722  .00252620  00000+0  10348-1 0  2577
2 52680  53.1589  12.9588 0001253  82.6759 282.6955 15.23637032    15

Acompanhe STARLINK-3774 em tempo real com AllMySat

Download on the App Store